^^
Saratoga-Weather Station Historical Data
Daily Summary for July 18, 2021 Units:  English    Metric   Both
Daily Weekly Monthly Yearly Custom
  High: Low: Average:
Temperature: 67.3 °F 57.2 °F 61.3 °F
Dew Point: 60.8 °F 55.2 °F 57.9 °F
Humidity: 95% 76% 89%
Wind Speed: 11mph 0mph 2.5mph
Wind Gust: 13mph - -
Wind- - West
Pressure: 30.1 in 30 in -
Precipitation: 0.03 in    
Historical Graphs
 
 
Tabular Data for July 18, 2021
Time Temperature Dew Point Pressure Wind Wind Speed Wind Gust Humidity Rainfall Rate (Hourly) solar
00:03 57.2 °F 55.2 °F 30.1 in West 2 mph 5 mph 93% 0.01 in 0 W/m2
00:08 57.2 °F 55.2 °F 30.1 in WSW 0.9 mph 4 mph 93% 0 in 0 W/m2
00:13 57.2 °F 55.2 °F 30.1 in NNW 2 mph 3 mph 93% 0 in 0 W/m2
00:18 57.2 °F 55.2 °F 30.1 in NW 0.9 mph 2 mph 93% 0 in 0 W/m2
00:23 57.4 °F 55.4 °F 30.1 in West 0.9 mph 3 mph 93% 0 in 0 W/m2
00:28 57.4 °F 55.4 °F 30.1 in West 4 mph 8 mph 93% 0 in 0 W/m2
00:33 57.4 °F 55.4 °F 30.1 in WNW 2.9 mph 4 mph 93% 0 in 0 W/m2
00:38 57.4 °F 55.4 °F 30.1 in North 0.9 mph 8 mph 93% 0 in 0 W/m2
00:44 57.4 °F 55.6 °F 30.1 in WNW 0.9 mph 6 mph 94% 0 in 0 W/m2
00:49 57.4 °F 55.6 °F 30.1 in WNW 0.9 mph 1 mph 94% 0 in 0 W/m2
00:54 57.4 °F 55.6 °F 30.1 in NW 2 mph 5 mph 94% 0 in 0 W/m2
00:59 57.4 °F 55.6 °F 30.1 in NW 2 mph 3 mph 94% 0 in 0 W/m2
01:04 57.2 °F 55.4 °F 30.1 in WNW 2.9 mph 4 mph 94% 0 in 0 W/m2
01:09 57.2 °F 55.4 °F 30.1 in WSW 2 mph 3 mph 94% 0 in 0 W/m2
01:14 57.2 °F 55.4 °F 30.1 in NW 0.9 mph 4 mph 94% 0 in 0 W/m2
01:19 57.2 °F 55.4 °F 30.1 in West 2 mph 4 mph 94% 0 in 0 W/m2
01:24 57.2 °F 55.4 °F 30.1 in NW 2 mph 2 mph 94% 0 in 0 W/m2
01:29 57.4 °F 55.6 °F 30.1 in Calm   4 mph 94% 0 in 0 W/m2
01:34 57.4 °F 55.6 °F 30.1 in WNW 4 mph 4 mph 94% 0 in 0 W/m2
01:39 57.4 °F 55.6 °F 30.1 in WNW 2 mph 4 mph 94% 0.01 in 0 W/m2
01:44 57.4 °F 55.6 °F 30.1 in WNW 4 mph 7 mph 94% 0.01 in 0 W/m2
01:49 57.4 °F 55.6 °F 30.1 in West 2.9 mph 4 mph 94% 0.01 in 0 W/m2
01:54 57.4 °F 55.6 °F 30.1 in WSW 2 mph 9 mph 94% 0.01 in 0 W/m2
01:59 57.4 °F 55.6 °F 30.1 in WNW 2.9 mph 7 mph 94% 0.01 in 0 W/m2
02:04 57.4 °F 55.6 °F 30.1 in West 2.9 mph 4 mph 94% 0.01 in 0 W/m2
02:09 57.4 °F 55.6 °F 30.1 in WNW 2 mph 4 mph 94% 0.01 in 0 W/m2
02:14 57.4 °F 55.6 °F 30.1 in WNW 2.9 mph 6 mph 94% 0.01 in 0 W/m2
02:19 57.4 °F 55.6 °F 30.1 in WSW 2.9 mph 4 mph 94% 0.01 in 0 W/m2
02:24 57.4 °F 55.6 °F 30.1 in SW 4 mph 7 mph 94% 0.01 in 0 W/m2
02:29 57.4 °F 55.6 °F 30.1 in SW 2.9 mph 8 mph 94% 0.01 in 0 W/m2
02:34 57.4 °F 55.6 °F 30.1 in ENE 2 mph 4 mph 94% 0.02 in 0 W/m2
02:39 57.4 °F 55.6 °F 30.1 in WSW 2.9 mph 6 mph 94% 0.01 in 0 W/m2
02:44 57.4 °F 55.6 °F 30.1 in WNW 4 mph 8 mph 94% 0.01 in 0 W/m2
02:49 57.4 °F 55.6 °F 30.1 in WSW 2 mph 9 mph 94% 0.01 in 0 W/m2
02:54 57.6 °F 55.8 °F 30.1 in WSW 2.9 mph 7 mph 94% 0.01 in 0 W/m2
02:59 57.6 °F 55.8 °F 30.1 in West 2 mph 8 mph 94% 0.01 in 0 W/m2
03:04 57.6 °F 55.8 °F 30.1 in WNW 2 mph 7 mph 94% 0.01 in 0 W/m2
03:09 57.6 °F 56.1 °F 30.1 in West 0.9 mph 5 mph 95% 0.01 in 0 W/m2
03:14 57.6 °F 56.1 °F 30.1 in WNW 2 mph 3 mph 95% 0.01 in 0 W/m2
03:19 57.6 °F 56.1 °F 30.1 in West 2 mph 8 mph 95% 0.01 in 0 W/m2
03:24 57.6 °F 56.1 °F 30.1 in West 6 mph 6 mph 95% 0.02 in 0 W/m2
03:29 57.6 °F 56.1 °F 30.1 in West 2 mph 3 mph 95% 0.02 in 0 W/m2
03:34 57.6 °F 56.1 °F 30.1 in West 2.9 mph 7 mph 95% 0.01 in 0 W/m2
03:39 57.6 °F 56.1 °F 30.1 in WNW 0.9 mph 4 mph 95% 0.01 in 0 W/m2
03:44 57.6 °F 56.1 °F 30.1 in West 2 mph 7 mph 95% 0.01 in 0 W/m2
03:49 57.6 °F 56.1 °F 30.1 in West 4 mph 8 mph 95% 0.01 in 0 W/m2
03:54 57.6 °F 56.1 °F 30.1 in WSW 4 mph 7 mph 95% 0.01 in 0 W/m2
04:04 57.6 °F 56.1 °F 30.1 in WNW 2.9 mph 5 mph 95% 0.01 in 0 W/m2
04:09 57.6 °F 56.1 °F 30.1 in WNW 2 mph 9 mph 95% 0.01 in 0 W/m2
04:14 57.7 °F 56.3 °F 30.1 in West 2.9 mph 7 mph 95% 0.01 in 0 W/m2
04:19 57.7 °F 56.3 °F 30.1 in WNW 2.9 mph 9 mph 95% 0.01 in 0 W/m2
04:24 57.7 °F 56.3 °F 30.1 in West 6 mph 10 mph 95% 0 in 0 W/m2
04:29 57.7 °F 56.3 °F 30.1 in WNW 4.9 mph 5 mph 95% 0 in 0 W/m2
04:39 57.7 °F 56.3 °F 30.1 in WNW 4 mph 8 mph 95% 0 in 0 W/m2
04:44 57.7 °F 56.3 °F 30.1 in WSW 0.9 mph 9 mph 95% 0 in 0 W/m2
04:49 57.7 °F 56.3 °F 30.1 in WSW 2.9 mph 4 mph 95% 0 in 0 W/m2
04:54 57.7 °F 55.9 °F 30 in WSW 4 mph 5 mph 94% 0 in 0 W/m2
04:59 57.7 °F 55.9 °F 30.1 in WSW 2 mph 3 mph 94% 0 in 0 W/m2
05:04 57.7 °F 55.9 °F 30.1 in WSW 4 mph 5 mph 94% 0 in 0 W/m2
05:09 57.7 °F 55.9 °F 30.1 in WSW 2.9 mph 8 mph 94% 0 in 0 W/m2
05:14 57.7 °F 55.9 °F 30.1 in SW 2.9 mph 4 mph 94% 0 in 0 W/m2
05:19 57.9 °F 56.1 °F 30.1 in WSW 0.9 mph 8 mph 94% 0 in 0 W/m2
05:24 57.9 °F 56.1 °F 30.1 in West 4 mph 4 mph 94% 0 in 0 W/m2
05:29 57.9 °F 56.1 °F 30.1 in West 0.9 mph 5 mph 94% 0 in 0 W/m2
05:34 57.7 °F 55.9 °F 30.1 in WNW 2.9 mph 7 mph 94% 0 in 0 W/m2
05:39 57.9 °F 56.1 °F 30.1 in WSW 2.9 mph 4 mph 94% 0 in 0 W/m2
05:44 57.9 °F 56.1 °F 30.1 in West 6 mph 7 mph 94% 0 in 0 W/m2
05:49 57.9 °F 56.1 °F 30.1 in West 2 mph 7 mph 94% 0 in 0 W/m2
05:54 57.9 °F 56.1 °F 30.1 in WNW 2 mph 4 mph 94% 0 in 0 W/m2
05:59 57.9 °F 56.1 °F 30.1 in WNW 0.9 mph 7 mph 94% 0 in 0 W/m2
06:04 57.9 °F 56.1 °F 30.1 in WNW 2 mph 3 mph 94% 0 in 0 W/m2
06:09 57.9 °F 56.1 °F 30.1 in WSW 4 mph 4 mph 94% 0 in 0 W/m2
06:14 57.9 °F 56.1 °F 30.1 in WSW 0.9 mph 2 mph 94% 0 in 0 W/m2
06:19 57.9 °F 56.1 °F 30.1 in West 2 mph 4 mph 94% 0 in 0 W/m2
06:24 57.9 °F 56.1 °F 30.1 in West 2 mph 4 mph 94% 0 in 0 W/m2
06:29 57.9 °F 56.1 °F 30.1 in WSW 2 mph 3 mph 94% 0 in 0 W/m2
06:34 57.9 °F 56.1 °F 30.1 in WNW 4 mph 4 mph 94% 0 in 0 W/m2
06:39 57.9 °F 56.1 °F 30.1 in West 2.9 mph 6 mph 94% 0 in 0 W/m2
06:44 57.9 °F 56.1 °F 30.1 in WSW 2.9 mph 3 mph 94% 0 in 0 W/m2
06:49 57.9 °F 56.1 °F 30.1 in West 2.9 mph 3 mph 94% 0 in 0 W/m2
06:54 57.9 °F 56.1 °F 30.1 in WNW 2 mph 3 mph 94% 0 in 5 W/m2
06:59 57.9 °F 56.1 °F 30.1 in West 0.9 mph 4 mph 94% 0 in 5 W/m2
07:04 57.9 °F 56.1 °F 30.1 in West 2 mph 3 mph 94% 0 in 7 W/m2
07:09 57.9 °F 56.1 °F 30.1 in WNW 0.9 mph 2 mph 94% 0 in 7 W/m2
07:14 57.9 °F 56.5 °F 30.1 in Calm   1 mph 95% 0 in 9 W/m2
07:19 57.9 °F 56.5 °F 30.1 in WNW 2 mph 2 mph 95% 0 in 12 W/m2
07:24 57.9 °F 56.5 °F 30.1 in Calm   3 mph 95% 0 in 14 W/m2
07:29 57.9 °F 56.5 °F 30.1 in West 0.9 mph 2 mph 95% 0 in 18 W/m2
07:34 57.9 °F 56.5 °F 30.1 in West 2 mph 2 mph 95% 0 in 18 W/m2
07:39 57.9 °F 56.5 °F 30.1 in SW 0.9 mph 2 mph 95% 0 in 21 W/m2
07:44 58.1 °F 56.7 °F 30.1 in WNW 0.9 mph 2 mph 95% 0 in 21 W/m2
07:49 58.1 °F 56.7 °F 30.1 in Calm   3 mph 95% 0 in 26 W/m2
07:54 58.1 °F 56.7 °F 30.1 in WNW 0.9 mph 3 mph 95% 0 in 26 W/m2
07:59 58.1 °F 56.7 °F 30.1 in NW 2 mph 3 mph 95% 0 in 35 W/m2
08:04 58.3 °F 56.8 °F 30.1 in Calm   2 mph 95% 0 in 65 W/m2
08:10 58.3 °F 56.8 °F 30.1 in WNW 0.9 mph 4 mph 95% 0 in 49 W/m2
08:15 58.5 °F 57 °F 30.1 in West 0.9 mph 3 mph 95% 0 in 37 W/m2
08:20 58.5 °F 57 °F 30.1 in West 2.9 mph 3 mph 95% 0 in 40 W/m2
08:25 58.5 °F 57 °F 30.1 in WNW 0.9 mph 3 mph 95% 0 in 46 W/m2
08:30 58.5 °F 57 °F 30.1 in WNW 2 mph 6 mph 95% 0 in 39 W/m2
08:35 58.5 °F 57 °F 30.1 in West 2.9 mph 3 mph 95% 0 in 46 W/m2
08:40 58.5 °F 57 °F 30.1 in WNW 0.9 mph 5 mph 95% 0 in 51 W/m2
08:45 58.5 °F 57 °F 30.1 in SW 2 mph 4 mph 95% 0 in 65 W/m2
08:50 58.6 °F 57.2 °F 30.1 in WNW 0.9 mph 3 mph 95% 0 in 72 W/m2
08:55 58.6 °F 57.2 °F 30.1 in WNW 2 mph 3 mph 95% 0 in 63 W/m2
09:00 58.8 °F 57.4 °F 30.1 in West 0.9 mph 4 mph 95% 0 in 63 W/m2
09:05 58.8 °F 57.4 °F 30.1 in WNW 2 mph 4 mph 95% 0 in 81 W/m2
09:10 59 °F 57.6 °F 30.1 in WNW 2.9 mph 4 mph 95% 0 in 58 W/m2
09:15 59.2 °F 57.7 °F 30.1 in WNW 0.9 mph 2 mph 95% 0 in 70 W/m2
09:20 59.2 °F 57.4 °F 30.1 in WNW 2.9 mph 3 mph 94% 0 in 91 W/m2
09:25 59.2 °F 57.4 °F 30.1 in WNW 2 mph 3 mph 94% 0 in 91 W/m2
09:30 59.4 °F 57.6 °F 30.1 in NW 0.9 mph 4 mph 94% 0 in 118 W/m2
09:35 59.5 °F 57.7 °F 30.1 in NW 2 mph 2 mph 94% 0 in 146 W/m2
09:40 59.7 °F 57.9 °F 30.1 in WNW 2 mph 4 mph 94% 0 in 139 W/m2
09:45 59.7 °F 57.9 °F 30.1 in NW 0.9 mph 3 mph 94% 0 in 137 W/m2
09:50 60.1 °F 58.3 °F 30.1 in NW 2.9 mph 3 mph 94% 0 in 107 W/m2
09:55 60.1 °F 58.3 °F 30.1 in West 2 mph 5 mph 94% 0 in 127 W/m2
10:00 60.1 °F 58.3 °F 30.1 in WNW 0.9 mph 3 mph 94% 0 in 123 W/m2
10:05 60.1 °F 58.1 °F 30.1 in WNW 0.9 mph 5 mph 93% 0 in 142 W/m2
10:10 60.3 °F 58.3 °F 30.1 in NW 2 mph 3 mph 93% 0 in 181 W/m2
10:15 60.3 °F 58.3 °F 30.1 in WSW 0.9 mph 3 mph 93% 0 in 230 W/m2
10:20 60.6 °F 58.8 °F 30.1 in WNW 0.9 mph 4 mph 94% 0 in 251 W/m2
10:25 60.8 °F 59 °F 30.1 in WNW 2 mph 3 mph 94% 0 in 243 W/m2
10:30 61.2 °F 59.2 °F 30.1 in West 0.9 mph 6 mph 93% 0 in 216 W/m2
10:35 61.2 °F 58.8 °F 30.1 in WNW 2.9 mph 7 mph 92% 0 in 167 W/m2
10:40 61 °F 58.6 °F 30.1 in NW 2.9 mph 5 mph 92% 0 in 214 W/m2
10:45 61 °F 59 °F 30.1 in West 6 mph 6 mph 93% 0 in 179 W/m2
10:50 61 °F 59 °F 30.1 in SW 2 mph 3 mph 93% 0 in 151 W/m2
10:55 61 °F 59 °F 30.1 in Calm   3 mph 93% 0 in 176 W/m2
11:00 61 °F 59 °F 30.1 in WSW 0.9 mph 5 mph 93% 0 in 188 W/m2
11:05 61 °F 59 °F 30.1 in West 0.9 mph 4 mph 93% 0 in 232 W/m2
11:10 61.2 °F 59.2 °F 30.1 in West 6 mph 7 mph 93% 0 in 250 W/m2
11:15 61.2 °F 59.2 °F 30.1 in WNW 2.9 mph 4 mph 93% 0.01 in 248 W/m2
11:20 61.2 °F 58.8 °F 30.1 in WNW 4 mph 7 mph 92% 0.01 in 220 W/m2
11:25 61.3 °F 59 °F 30.1 in NW 4 mph 6 mph 92% 0.01 in 257 W/m2
11:30 61.5 °F 59.2 °F 30.1 in West 6 mph 10 mph 92% 0.01 in 316 W/m2
11:35 62.1 °F 59.4 °F 30.1 in West 6 mph 6 mph 91% 0.01 in 387 W/m2
11:40 62.2 °F 59.2 °F 30.1 in West 2.9 mph 7 mph 90% 0.01 in 243 W/m2
11:45 62.2 °F 59 °F 30.1 in WNW 2.9 mph 10 mph 89% 0.01 in 128 W/m2
11:51 62.1 °F 58.8 °F 30.1 in West 2 mph 4 mph 89% 0.01 in 239 W/m2
11:56 62.1 °F 59.2 °F 30.1 in NW 0.9 mph 5 mph 90% 0.01 in 338 W/m2
12:01 62.4 °F 59.4 °F 30.1 in Calm   4 mph 90% 0.01 in 457 W/m2
12:06 63 °F 59.9 °F 30.1 in WNW 6 mph 9 mph 90% 0.01 in 334 W/m2
12:11 63.1 °F 59.9 °F 30.1 in WNW 2.9 mph 4 mph 89% 0.01 in 380 W/m2
12:16 63.5 °F 59.9 °F 30 in NW 2.9 mph 10 mph 88% 0 in 833 W/m2
12:21 64 °F 59.7 °F 30 in NW 2.9 mph 8 mph 86% 0 in 851 W/m2
12:26 64.8 °F 60.8 °F 30 in SW 2.9 mph 10 mph 87% 0 in 476 W/m2
12:31 64.9 °F 59.7 °F 30 in NW 2.9 mph 9 mph 83% 0 in 352 W/m2
12:36 65.1 °F 60.1 °F 30 in NW 0.9 mph 7 mph 84% 0 in 650 W/m2
12:41 65.7 °F 60.4 °F 30 in WSW 2.9 mph 9 mph 83% 0 in 531 W/m2
12:46 65.7 °F 59.7 °F 30 in WNW 2.9 mph 9 mph 81% 0 in 388 W/m2
12:51 65.5 °F 59.5 °F 30 in WSW 2.9 mph 8 mph 81% 0 in 327 W/m2
12:56 65.3 °F 59.7 °F 30 in West 6 mph 8 mph 82% 0 in 369 W/m2
13:01 65.3 °F 59.7 °F 30 in NW 6 mph 8 mph 82% 0 in 418 W/m2
13:06 65.8 °F 60.3 °F 30 in WNW 2 mph 8 mph 82% 0 in 487 W/m2
13:11 65.8 °F 59.2 °F 30 in West 6 mph 6 mph 79% 0 in 492 W/m2
13:16 66 °F 59.7 °F 30 in WNW 2.9 mph 7 mph 80% 0 in 1035 W/m2
13:21 66.7 °F 60.1 °F 30 in WNW 2.9 mph 11 mph 79% 0 in 410 W/m2
13:26 66.7 °F 59.4 °F 30 in WNW 4 mph 10 mph 77% 0 in 450 W/m2
13:31 66.7 °F 59.7 °F 30 in WSW 2 mph 11 mph 78% 0 in 387 W/m2
13:36 66.7 °F 59.4 °F 30 in WNW 6.9 mph 8 mph 77% 0 in 380 W/m2
13:41 66.6 °F 59.2 °F 30 in WSW 2 mph 10 mph 77% 0 in 381 W/m2
13:46 66.6 °F 59.2 °F 30 in West 4 mph 8 mph 77% 0 in 353 W/m2
13:51 66.4 °F 59.4 °F 30 in West 6 mph 10 mph 78% 0 in 364 W/m2
13:56 66.4 °F 59 °F 30 in WSW 4 mph 6 mph 77% 0 in 345 W/m2
14:01 66.6 °F 59.2 °F 30 in WNW 4.9 mph 7 mph 77% 0 in 327 W/m2
14:06 66.6 °F 58.8 °F 30 in WNW 4 mph 8 mph 76% 0 in 287 W/m2
14:11 66.6 °F 59.2 °F 30 in WNW 2.9 mph 4 mph 77% 0 in 274 W/m2
14:16 66.4 °F 59 °F 30 in NW 4 mph 4 mph 77% 0 in 309 W/m2
14:21 66.4 °F 59 °F 30 in West 2.9 mph 6 mph 77% 0 in 185 W/m2
14:26 65.8 °F 58.5 °F 30 in WSW 2 mph 2 mph 77% 0 in 135 W/m2
14:31 65.7 °F 59 °F 30 in West 6 mph 6 mph 79% 0 in 148 W/m2
14:36 65.5 °F 58.8 °F 30 in NW 4.9 mph 8 mph 79% 0 in 155 W/m2
14:41 65.1 °F 58.1 °F 30 in WNW 2 mph 7 mph 78% 0 in 160 W/m2
14:46 65.1 °F 58.8 °F 30 in West 0.9 mph 8 mph 80% 0 in 195 W/m2
14:51 65.5 °F 59.2 °F 30 in SW 4 mph 8 mph 80% 0 in 137 W/m2
14:56 65.3 °F 59 °F 30 in West 2.9 mph 5 mph 80% 0 in 88 W/m2
15:01 65.1 °F 59.2 °F 30 in WNW 2 mph 8 mph 81% 0 in 127 W/m2
15:06 65.3 °F 59.7 °F 30 in NW 4.9 mph 5 mph 82% 0 in 236 W/m2
15:11 65.5 °F 59.5 °F 30 in WNW 2.9 mph 4 mph 81% 0 in 373 W/m2
15:16 65.5 °F 59.2 °F 30 in West 6 mph 8 mph 80% 0 in 316 W/m2
15:21 65.7 °F 59.4 °F 30 in West 0.9 mph 6 mph 80% 0 in 244 W/m2
15:26 65.8 °F 59.5 °F 30 in NW 0.9 mph 8 mph 80% 0 in 171 W/m2
15:31 65.8 °F 59.5 °F 30 in WNW 2 mph 5 mph 80% 0 in 139 W/m2
15:36 65.8 °F 59.2 °F 30 in WSW 4.9 mph 8 mph 79% 0 in 146 W/m2
15:41 65.7 °F 59 °F 30 in West 2 mph 4 mph 79% 0 in 107 W/m2
15:46 65.7 °F 59.4 °F 30 in WSW 2.9 mph 4 mph 80% 0 in 102 W/m2
15:51 65.5 °F 59.2 °F 30 in WNW 2.9 mph 10 mph 80% 0 in 95 W/m2
15:56 65.1 °F 59.5 °F 30 in WNW 2.9 mph 9 mph 82% 0 in 151 W/m2
16:01 64.6 °F 59.4 °F 30 in West 10.1 mph 10 mph 83% 0 in 151 W/m2
16:06 64.2 °F 59.4 °F 30 in SW 6 mph 7 mph 84% 0 in 248 W/m2
16:11 64 °F 59.4 °F 30 in WNW 4.9 mph 10 mph 85% 0 in 221 W/m2
16:16 64 °F 59.4 °F 30 in West 2 mph 6 mph 85% 0 in 339 W/m2
16:21 64.2 °F 59.5 °F 30 in West 4 mph 7 mph 85% 0 in 406 W/m2
16:26 64.6 °F 59.7 °F 30 in West 2.9 mph 4 mph 84% 0 in 374 W/m2
16:31 64.9 °F 59.7 °F 30 in WNW 2 mph 7 mph 83% 0 in 392 W/m2
16:36 65.5 °F 60.3 °F 30 in West 2 mph 8 mph 83% 0 in 396 W/m2
16:41 65.7 °F 59.7 °F 30 in WSW 0.9 mph 6 mph 81% 0 in 390 W/m2
16:46 66 °F 60.1 °F 30 in WNW 2 mph 8 mph 81% 0 in 378 W/m2
16:51 66.4 °F 59.7 °F 30 in WNW 4 mph 8 mph 79% 0 in 439 W/m2
16:56 66.6 °F 59.5 °F 30 in West 6.9 mph 10 mph 78% 0 in 443 W/m2
17:01 66.9 °F 59.9 °F 30 in WNW 2.9 mph 7 mph 78% 0 in 371 W/m2
17:06 67.3 °F 59.9 °F 30 in WNW 6.9 mph 10 mph 77% 0 in 255 W/m2
17:11 67.1 °F 59.7 °F 30 in WSW 6.9 mph 8 mph 77% 0 in 272 W/m2
17:16 66.9 °F 59.2 °F 30 in NW 2 mph 10 mph 76% 0 in 213 W/m2
17:21 66.9 °F 59.5 °F 30 in WNW 4.9 mph 7 mph 77% 0 in 142 W/m2
17:26 66.7 °F 59.4 °F 30 in WSW 4.9 mph 7 mph 77% 0 in 130 W/m2
17:32 66.4 °F 59.4 °F 30 in WSW 0.9 mph 4 mph 78% 0 in 134 W/m2
17:37 66.4 °F 59.7 °F 30 in West 2 mph 2 mph 79% 0 in 100 W/m2
17:42 66.4 °F 60.1 °F 30 in WSW 0.9 mph 3 mph 80% 0 in 100 W/m2
17:47 66 °F 60.1 °F 30 in Calm   7 mph 81% 0 in 102 W/m2
17:52 65.8 °F 60.3 °F 30 in NW 2 mph 3 mph 82% 0 in 95 W/m2
17:57 65.7 °F 60.1 °F 30 in WNW 2 mph 7 mph 82% 0 in 109 W/m2
18:02 65.7 °F 60.4 °F 30 in NW 0.9 mph 3 mph 83% 0 in 116 W/m2
18:07 65.5 °F 60.3 °F 30 in West 0.9 mph 2 mph 83% 0 in 104 W/m2
18:12 65.5 °F 59.9 °F 30 in SSW 6 mph 7 mph 82% 0 in 100 W/m2
18:17 65.5 °F 59.9 °F 30 in NW 2 mph 7 mph 82% 0 in 111 W/m2
18:22 65.5 °F 60.3 °F 30 in West 2 mph 3 mph 83% 0 in 114 W/m2
18:27 65.5 °F 59.9 °F 30 in WNW 0.9 mph 4 mph 82% 0 in 93 W/m2
18:32 65.5 °F 59.9 °F 30 in WNW 2 mph 4 mph 82% 0 in 72 W/m2
18:37 65.5 °F 59.9 °F 30 in WNW 6.9 mph 8 mph 82% 0 in 60 W/m2
18:42 65.3 °F 59.4 °F 30 in NW 6.9 mph 7 mph 81% 0 in 49 W/m2
18:47 65.1 °F 59.2 °F 30 in WNW 2 mph 8 mph 81% 0 in 42 W/m2
18:52 65.1 °F 59.2 °F 30 in West 2 mph 4 mph 81% 0 in 44 W/m2
18:57 64.9 °F 59.4 °F 30 in WNW 2.9 mph 8 mph 82% 0 in 44 W/m2
19:02 64.9 °F 59.4 °F 30 in WSW 4.9 mph 8 mph 82% 0 in 44 W/m2
19:07 64.8 °F 59.5 °F 30 in WNW 4 mph 7 mph 83% 0 in 47 W/m2
19:12 64.6 °F 59.4 °F 30 in West 2.9 mph 6 mph 83% 0 in 42 W/m2
19:17 64.4 °F 59.5 °F 30 in NNW 2 mph 7 mph 84% 0 in 39 W/m2
19:22 64.4 °F 59.5 °F 30 in NNW 0.9 mph 4 mph 84% 0 in 44 W/m2
19:27 64.4 °F 59.5 °F 30 in West 4 mph 7 mph 84% 0 in 44 W/m2
19:32 64.4 °F 59.5 °F 30 in WSW 0.9 mph 4 mph 84% 0 in 37 W/m2
19:37 64.2 °F 59.4 °F 30 in WSW 11 mph 13 mph 84% 0 in 30 W/m2
19:42 63.9 °F 59 °F 30 in WNW 8.9 mph 9 mph 84% 0 in 23 W/m2
19:47 63.5 °F 58.6 °F 30 in WSW 4 mph 12 mph 84% 0 in 23 W/m2
19:52 63.3 °F 58.5 °F 30 in WNW 0.9 mph 4 mph 84% 0 in 25 W/m2
19:57 63.3 °F 58.5 °F 30 in West 0.9 mph 8 mph 84% 0 in 25 W/m2
20:02 63.3 °F 58.5 °F 30 in West 2.9 mph 6 mph 84% 0 in 25 W/m2
20:07 63.3 °F 58.5 °F 30 in West 2 mph 3 mph 84% 0 in 23 W/m2
20:12 63.3 °F 58.8 °F 30 in NNW 2 mph 4 mph 85% 0 in 19 W/m2
20:17 63.3 °F 58.8 °F 30 in Calm   3 mph 85% 0 in 16 W/m2
20:22 63.1 °F 58.6 °F 30 in West 2 mph 4 mph 85% 0 in 12 W/m2
20:27 63.1 °F 58.8 °F 30 in Calm   2 mph 86% 0 in 11 W/m2
20:32 63.1 °F 58.8 °F 30 in WNW 4 mph 5 mph 86% 0 in 7 W/m2
20:37 63 °F 59 °F 30 in NW 2.9 mph 3 mph 87% 0 in 0 W/m2
20:42 63 °F 59 °F 30 in West 2.9 mph 8 mph 87% 0 in 0 W/m2
20:47 62.8 °F 59.2 °F 30 in WNW 2 mph 4 mph 88% 0 in 0 W/m2
20:52 62.8 °F 59.2 °F 30 in WSW 0.9 mph 3 mph 88% 0 in 0 W/m2
20:57 62.6 °F 59 °F 30 in NW 2.9 mph 4 mph 88% 0 in 0 W/m2
21:02 62.6 °F 59 °F 30 in WNW 4 mph 7 mph 88% 0 in 0 W/m2
21:07 62.4 °F 59.2 °F 30 in WSW 2 mph 5 mph 89% 0 in 0 W/m2
21:12 62.4 °F 59.2 °F 30 in WSW 0.9 mph 6 mph 89% 0 in 0 W/m2
21:17 62.4 °F 59.2 °F 30 in West 2 mph 6 mph 89% 0 in 0 W/m2
21:22 62.4 °F 59.2 °F 30 in West 2.9 mph 4 mph 89% 0 in 0 W/m2
21:27 62.4 °F 59.2 °F 30 in West 0.9 mph 7 mph 89% 0 in 0 W/m2
21:32 62.4 °F 59.2 °F 30 in WNW 2 mph 3 mph 89% 0 in 0 W/m2
21:37 62.2 °F 59 °F 30 in NW 0.9 mph 2 mph 89% 0 in 0 W/m2
21:42 62.2 °F 59 °F 30 in WNW 2.9 mph 4 mph 89% 0 in 0 W/m2
21:47 62.2 °F 59 °F 30 in SW 4 mph 5 mph 89% 0 in 0 W/m2
21:52 62.2 °F 59 °F 30 in West 0.9 mph 7 mph 89% 0 in 0 W/m2
21:57 62.2 °F 59 °F 30 in WNW 0.9 mph 2 mph 89% 0 in 0 W/m2
22:02 62.1 °F 58.8 °F 30 in WSW 2.9 mph 6 mph 89% 0 in 0 W/m2
22:07 62.1 °F 58.8 °F 30 in WNW 0.9 mph 4 mph 89% 0 in 0 W/m2
22:12 62.1 °F 59.2 °F 30 in WSW 0.9 mph 4 mph 90% 0 in 0 W/m2
22:17 62.1 °F 59.2 °F 30 in NW 0.9 mph 3 mph 90% 0 in 0 W/m2
22:22 62.1 °F 59.2 °F 30 in NW 0.9 mph 3 mph 90% 0 in 0 W/m2
22:27 62.1 °F 59.2 °F 30 in Calm   3 mph 90% 0 in 0 W/m2
22:32 61.9 °F 59 °F 30 in WNW 4 mph 4 mph 90% 0 in 0 W/m2
22:37 61.9 °F 59 °F 30 in West 2.9 mph 5 mph 90% 0 in 0 W/m2
22:42 61.9 °F 59 °F 30 in WNW 0.9 mph 3 mph 90% 0 in 0 W/m2
22:47 61.9 °F 59 °F 30 in West 0.9 mph 2 mph 90% 0 in 0 W/m2
22:52 61.9 °F 59 °F 30 in NW 2.9 mph 3 mph 90% 0 in 0 W/m2
22:57 61.7 °F 58.8 °F 30 in WNW 2 mph 3 mph 90% 0 in 0 W/m2
23:02 61.7 °F 58.8 °F 30 in Calm   3 mph 90% 0 in 0 W/m2
23:07 61.7 °F 58.8 °F 30 in WNW 2.9 mph 5 mph 90% 0 in 0 W/m2
23:12 61.5 °F 58.6 °F 30 in WNW 2.9 mph 3 mph 90% 0 in 0 W/m2
23:17 61.5 °F 58.6 °F 30 in West 0.9 mph 5 mph 90% 0 in 0 W/m2
23:22 61.5 °F 58.8 °F 30 in West 0.9 mph 4 mph 91% 0 in 0 W/m2
23:27 61.5 °F 58.8 °F 30 in WNW 0.9 mph 4 mph 91% 0 in 0 W/m2
23:32 61.5 °F 58.8 °F 30 in West 0.9 mph 3 mph 91% 0 in 0 W/m2
23:37 61.5 °F 58.8 °F 30 in West 0.9 mph 2 mph 91% 0 in 0 W/m2
23:42 61.5 °F 58.8 °F 30 in West 0.9 mph 4 mph 91% 0 in 0 W/m2
23:47 61.5 °F 58.8 °F 30 in Calm   4 mph 91% 0 in 0 W/m2
23:52 61.5 °F 58.8 °F 30 in North 0.9 mph 2 mph 91% 0 in 0 W/m2
23:57 61.5 °F 58.8 °F 30 in WNW 0.9 mph 2 mph 91% 0 in 0 W/m2
Juneau County Weather
Compliments of Weather Underground - 4 mb